CW5307 Weather Reports


time (UTC)temp
C
wind
direction
speed
KPH
gust
KPH
rain 1hr
cm
rain 24hr
cm
rain mn
cm
humidity
%
barometer
mb
20260510130744 15 178 0.0 0.0 0.00 0.00 0.00 92 1009.6
20260510130244 14 178 0.0 6.4 0.00 0.00 0.00 92 1009.6
20260510125747 14 178 0.0 0.0 0.00 0.00 0.00 92 1009.9
20260510125241 14 178 0.0 0.0 0.00 0.00 0.00 92 1009.9
20260510124748 13 178 0.0 0.0 0.00 0.00 0.00 92 1009.9
20260510124245 13 177 0.0 6.4 0.00 0.00 0.00 92 1009.9
20260510123742 13 177 1.6 3.2 0.00 0.00 0.00 92 1009.9
20260510123247 13 177 0.0 0.0 0.00 0.00 0.00 92 1009.9
20260510122741 13 178 0.0 0.0 0.00 0.00 0.00 92 1009.8
20260510122247 13 177 0.0 0.0 0.00 0.00 0.00 92 1009.8
20260510121744 12 178 0.0 0.0 0.00 0.00 0.00 92 1009.8
20260510121247 12 178 0.0 0.0 0.00 0.00 0.00 92 1009.7
20260510120745 12 177 0.0 0.0 0.00 0.00 0.00 92 1009.7
20260510120247 12 177 0.0 0.0 0.00 0.00 0.00 92 1009.7
20260510115744 11 177 0.0 0.0 0.00 0.00 0.00 91 1009.4
20260510115247 11 177 0.0 0.0 0.00 0.00 0.00 91 1009.4
20260510114741 11 177 0.0 0.0 0.00 0.00 0.00 91 1009.4
20260510114241 11 177 0.0 0.0 0.00 0.00 0.00 91 1009.4
20260510113744 11 178 0.0 0.0 0.00 0.00 0.00 90 1009.4
20260510113241 11 177 0.0 0.0 0.00 0.00 0.00 90 1009.4
20260510112741 10 178 0.0 0.0 0.00 0.00 0.00 90 1009.1
20260510112244 10 177 0.0 0.0 0.00 0.00 0.00 90 1009.1
20260510111741 10 178 0.0 0.0 0.00 0.00 0.00 89 1009.1
20260510111244 10 178 0.0 0.0 0.00 0.00 0.00 89 1008.9
20260510110741 10 177 0.0 0.0 0.00 0.00 0.00 89 1008.9
20260510110247 10 177 0.0 0.0 0.00 0.00 0.00 88 1008.9
20260510105744 10 177 0.0 1.6 0.00 0.00 0.00 88 1008.6
20260510105241 10 177 0.0 0.0 0.00 0.00 0.00 88 1008.6
20260510104747 10 177 0.0 0.0 0.00 0.00 0.00 88 1008.6
20260510104251 10 178 0.0 0.0 0.00 0.00 0.00 88 1008.4
20260510103745 10 177 0.0 0.0 0.00 0.00 0.00 88 1008.4
20260510103241 10 177 0.0 0.0 0.00 0.00 0.00 88 1008.4
20260510102750 10 177 0.0 0.0 0.00 0.00 0.00 87 1008.2
20260510102244 10 177 0.0 0.0 0.00 0.00 0.00 87 1008.2
20260510101744 10 177 0.0 0.0 0.00 0.00 0.00 87 1008.2
20260510101241 10 177 0.0 0.0 0.00 0.00 0.00 87 1008.0
20260510100747 10 177 0.0 0.0 0.00 0.00 0.00 87 1008.0
20260510100247 10 177 0.0 0.0 0.00 0.00 0.00 87 1008.0
20260510095747 10 177 0.0 0.0 0.00 0.00 0.00 87 1007.9
20260510095247 10 177 0.0 0.0 0.00 0.00 0.00 87 1007.9
20260510094743 10 177 0.0 0.0 0.00 0.00 0.00 87 1007.9
20260510094251 10 177 0.0 0.0 0.00 0.00 0.00 87 1008.0
20260510093751 10 177 0.0 0.0 0.00 0.00 0.00 87 1008.0
20260510093241 10 177 0.0 0.0 0.00 0.00 0.00 87 1008.0
20260510092741 10 177 0.0 3.2 0.00 0.00 0.00 87 1008.0
20260510092241 10 177 0.0 0.0 0.00 0.00 0.00 87 1008.0
20260510091750 10 177 0.0 0.0 0.00 0.00 0.00 87 1008.0
20260510091244 10 177 0.0 0.0 0.00 0.00 0.00 87 1007.9
20260510090747 10 177 0.0 0.0 0.00 0.00 0.00 86 1007.9
20260510090244 10 177 0.0 0.0 0.00 0.00 0.00 86 1007.9
20260510085747 10 177 0.0 0.0 0.00 0.00 0.00 86 1007.9
20260510085245 10 177 0.0 0.0 0.00 0.00 0.00 86 1007.9
20260510084741 10 177 0.0 0.0 0.00 0.00 0.00 86 1007.9
20260510084241 10 177 0.0 0.0 0.00 0.00 0.00 86 1007.9
20260510083744 10 177 0.0 3.2 0.00 0.00 0.00 86 1007.9
20260510083241 10 177 0.0 1.6 0.00 0.00 0.00 86 1007.9
20260510082742 10 177 0.0 0.0 0.00 0.00 0.00 86 1007.8
20260510082247 10 177 0.0 0.0 0.00 0.00 0.00 86 1007.8
20260510081744 10 177 0.0 0.0 0.00 0.00 0.00 86 1007.8
20260510081244 10 177 0.0 0.0 0.00 0.00 0.00 86 1007.4
20260510080741 10 177 0.0 1.6 0.00 0.00 0.00 85 1007.4
20260510080247 10 177 0.0 0.0 0.00 0.00 0.00 85 1007.4
20260510075744 10 177 0.0 1.6 0.00 0.00 0.00 85 1007.4
20260510075245 11 177 0.0 1.6 0.00 0.00 0.00 85 1007.4
20260510074744 11 177 0.0 0.0 0.00 0.00 0.00 85 1007.4
20260510074248 11 177 0.0 0.0 0.00 0.00 0.00 85 1007.1
20260510073744 11 177 0.0 0.0 0.00 0.00 0.00 85 1007.1
20260510073242 11 177 0.0 0.0 0.00 0.00 0.00 85 1007.1
20260510072741 11 177 0.0 0.0 0.00 0.00 0.00 85 1007.0
20260510072241 11 177 0.0 0.0 0.00 0.00 0.00 85 1007.0
20260510071741 11 177 0.0 0.0 0.00 0.00 0.00 85 1007.0
20260510071246 11 177 0.0 0.0 0.00 0.00 0.00 85 1007.0
20260510070741 11 177 0.0 0.0 0.00 0.00 0.00 84 1007.0
20260510070244 11 177 0.0 0.0 0.00 0.00 0.00 85 1007.0
20260510065741 11 177 0.0 0.0 0.00 0.00 0.00 84 1006.9
20260510065242 11 177 0.0 0.0 0.00 0.00 0.00 84 1006.9
20260510064747 11 177 0.0 0.0 0.00 0.00 0.00 84 1006.9
20260510064241 11 177 0.0 0.0 0.00 0.00 0.00 84 1006.8
20260510063741 11 177 0.0 0.0 0.00 0.00 0.00 84 1006.8
20260510063250 12 177 0.0 0.0 0.00 0.00 0.00 84 1006.8
20260510062744 12 177 0.0 0.0 0.00 0.00 0.00 84 1006.9
20260510062250 12 177 0.0 0.0 0.00 0.00 0.00 84 1006.9
20260510061744 12 177 0.0 0.0 0.00 0.00 0.00 84 1006.9
20260510061241 12 177 0.0 0.0 0.00 0.00 0.00 84 1006.8
20260510060741 12 177 0.0 0.0 0.00 0.00 0.00 84 1006.8
20260510060244 12 177 0.0 0.0 0.00 0.00 0.00 84 1006.8
20260510055742 12 177 0.0 0.0 0.00 0.00 0.00 83 1007.0
20260510055244 12 177 0.0 0.0 0.00 0.00 0.00 83 1007.0
20260510054744 12 177 0.0 0.0 0.00 0.00 0.00 83 1007.0
20260510054241 12 177 0.0 0.0 0.00 0.00 0.00 83 1007.1
20260510053741 12 177 0.0 0.0 0.00 0.00 0.00 83 1007.1
20260510053242 12 177 0.0 0.0 0.00 0.00 0.00 83 1007.1
20260510052744 12 177 0.0 0.0 0.00 0.00 0.00 83 1007.1
20260510052244 12 177 0.0 0.0 0.00 0.00 0.00 83 1007.1
20260510051743 13 177 0.0 0.0 0.00 0.00 0.00 83 1007.1
20260510051247 13 177 0.0 0.0 0.00 0.00 0.00 83 1007.1
20260510050741 13 177 0.0 0.0 0.00 0.00 0.00 82 1007.1
20260510050241 13 177 0.0 0.0 0.00 0.00 0.00 82 1007.1
20260510045741 13 177 0.0 0.0 0.00 0.00 0.00 82 1007.2
20260510045245 13 177 0.0 0.0 0.00 0.00 0.00 82 1007.2
20260510044747 13 177 0.0 0.0 0.00 0.00 0.00 82 1007.2
20260510044241 13 177 0.0 0.0 0.00 0.00 0.00 82 1007.2
20260510043741 13 177 0.0 0.0 0.00 0.00 0.00 82 1007.2
20260510043241 13 177 0.0 0.0 0.00 0.00 0.00 81 1007.2
20260510042741 13 177 0.0 0.0 0.00 0.00 0.00 81 1007.1
20260510042247 13 177 0.0 0.0 0.00 0.00 0.00 81 1007.1
20260510041743 13 177 0.0 0.0 0.00 0.00 0.00 81 1007.2
20260510041242 14 177 0.0 0.0 0.00 0.00 0.00 81 1007.1
20260510040741 14 177 0.0 0.0 0.00 0.00 0.00 81 1007.1
20260510040241 14 177 0.0 0.0 0.00 0.00 0.00 81 1007.1
20260510035742 14 177 0.0 0.0 0.00 0.00 0.00 81 1007.0
20260510035241 14 177 0.0 0.0 0.00 0.00 0.00 80 1007.0
20260510034747 14 177 0.0 0.0 0.00 0.00 0.00 80 1007.0
20260510034253 14 177 0.0 0.0 0.00 0.00 0.00 80 1007.1
20260510033741 15 177 0.0 0.0 0.00 0.00 0.00 80 1007.1
20260510033242 15 177 0.0 0.0 0.00 0.00 0.00 79 1007.1
20260510032745 15 177 0.0 0.0 0.00 0.00 0.00 79 1007.0
20260510032241 15 177 0.0 0.0 0.00 0.00 0.00 78 1007.0
20260510031744 15 177 0.0 0.0 0.00 0.00 0.00 78 1007.0
20260510031242 15 177 0.0 0.0 0.00 0.00 0.00 77 1007.0
20260510030744 15 177 0.0 0.0 0.00 0.00 0.00 77 1007.0
20260510030241 15 177 0.0 0.0 0.00 0.00 0.00 77 1007.0
20260510025741 15 177 0.0 0.0 0.00 0.00 0.00 76 1007.0
20260510025241 15 177 0.0 0.0 0.00 0.00 0.00 76 1007.0
20260510024741 15 177 0.0 0.0 0.00 0.00 0.00 76 1007.0
20260510024245 15 177 0.0 0.0 0.00 0.00 0.00 75 1006.9
20260510023744 15 177 0.0 0.0 0.00 0.00 0.00 75 1006.9
20260510023241 16 177 0.0 0.0 0.00 0.00 0.00 75 1006.9
20260510022741 16 177 0.0 0.0 0.00 0.00 0.00 74 1006.9
20260510022245 16 177 0.0 0.0 0.00 0.00 0.00 74 1006.9
20260510021741 16 177 0.0 0.0 0.00 0.00 0.00 74 1006.9
20260510021247 16 177 0.0 0.0 0.00 0.00 0.00 73 1006.8
20260510020741 16 177 0.0 1.6 0.00 0.00 0.00 73 1006.8
20260510020244 16 177 0.0 0.0 0.00 0.00 0.00 73 1006.8
20260510015744 16 177 0.0 1.6 0.00 0.00 0.00 73 1006.7
20260510015244 16 177 0.0 1.6 0.00 0.00 0.00 72 1006.7
20260510014741 16 177 0.0 0.0 0.00 0.00 0.00 71 1006.7
20260510014244 16 177 0.0 0.0 0.00 0.00 0.00 71 1006.5
20260510013748 17 177 0.0 0.0 0.00 0.00 0.00 71 1006.5
20260510013247 17 177 0.0 0.0 0.00 0.00 0.00 71 1006.5
20260510012744 17 177 0.0 0.0 0.00 0.00 0.00 70 1006.3
20260510012244 17 177 0.0 0.0 0.00 0.00 0.00 70 1006.3
20260510011742 17 177 0.0 0.0 0.00 0.00 0.00 70 1006.3
20260510011241 17 177 0.0 0.0 0.00 0.00 0.00 69 1006.1
20260510010745 17 177 0.0 0.0 0.00 0.00 0.00 69 1006.1
20260510010241 18 177 0.0 0.0 0.00 0.00 0.00 69 1006.1
20260510005747 18 177 0.0 0.0 0.00 0.00 0.00 68 1005.9
20260510005241 18 177 0.0 0.0 0.00 0.00 0.00 68 1005.9
20260510004741 18 177 0.0 0.0 0.00 0.00 0.00 67 1005.9
20260510004242 18 177 0.0 0.0 0.00 0.00 0.00 66 1005.8
20260510003750 18 177 0.0 0.0 0.00 0.00 0.00 66 1005.8
20260510003247 18 177 0.0 0.0 0.00 0.00 0.00 66 1005.8
20260510002741 18 177 0.0 0.0 0.00 0.00 0.00 66 1005.8
20260510002241 19 177 0.0 0.0 0.00 0.00 0.00 65 1005.8
20260510001750 19 177 0.0 0.0 0.00 0.00 0.00 64 1005.8
20260510001247 19 177 0.0 1.6 0.00 0.00 0.00 64 1005.5
20260510000748 19 177 0.0 0.0 0.00 0.00 0.00 64 1005.5
20260510000244 19 177 0.0 0.0 0.00 0.00 0.00 63 1005.5
20260509235742 20 177 0.0 1.6 0.00 0.00 0.00 63 1005.5
20260509235241 20 177 0.0 3.2 0.00 0.00 0.00 62 1005.5
20260509234741 20 177 0.0 0.0 0.00 0.00 0.00 62 1005.5
20260509234242 20 177 0.0 0.0 0.00 0.00 0.00 62 1005.4
20260509233747 20 177 0.0 0.0 0.00 0.00 0.00 62 1005.4
20260509233241 20 177 0.0 0.0 0.00 0.00 0.00 62 1005.4
20260509232747 20 177 0.0 0.0 0.00 0.00 0.00 62 1005.4
20260509232247 20 177 0.0 0.0 0.00 0.00 0.00 61 1005.4
20260509231741 20 177 0.0 0.0 0.00 0.00 0.00 61 1005.4
20260509231244 20 177 0.0 1.6 0.00 0.00 0.00 60 1005.2
20260509230744 20 177 0.0 0.0 0.00 0.00 0.00 60 1005.2
20260509230241 20 177 0.0 0.0 0.00 0.00 0.00 59 1005.2
20260509225741 21 177 0.0 1.6 0.00 0.00 0.00 60 1005.2
20260509225241 21 177 0.0 3.2 0.00 0.00 0.00 60 1005.2
20260509224741 21 177 0.0 6.4 0.00 0.00 0.00 59 1005.2
20260509224241 21 177 0.0 8.0 0.00 0.00 0.00 59 1005.3
20260509223744 21 177 0.0 1.6 0.00 0.00 0.00 59 1005.3
20260509223245 21 177 0.0 1.6 0.00 0.00 0.00 59 1005.3
20260509222741 21 177 0.0 1.6 0.00 0.00 0.00 60 1005.3
20260509222241 21 177 1.6 11.3 0.00 0.00 0.00 59 1005.3
20260509221741 21 177 0.0 0.0 0.00 0.00 0.00 59 1005.3
20260509221244 21 177 0.0 3.2 0.00 0.00 0.00 59 1005.3
20260509220742 21 177 0.0 0.0 0.00 0.00 0.00 59 1005.3
20260509220243 21 177 0.0 3.2 0.00 0.00 0.00 58 1005.3
20260509215742 21 177 0.0 0.0 0.00 0.00 0.00 57 1005.3
20260509215241 22 178 1.6 6.4 0.00 0.00 0.00 58 1005.3
20260509214744 22 177 0.0 1.6 0.00 0.00 0.00 57 1005.3
20260509214245 22 178 0.0 1.6 0.00 0.00 0.00 58 1005.2
20260509213744 22 177 0.0 1.6 0.00 0.00 0.00 57 1005.2
20260509213245 22 177 0.0 6.4 0.00 0.00 0.00 57 1005.2
20260509212742 22 177 0.0 0.0 0.00 0.00 0.00 57 1005.2
20260509212242 22 177 0.0 1.6 0.00 0.00 0.00 57 1005.2
20260509211744 22 177 0.0 8.0 0.00 0.00 0.00 57 1005.2
20260509211244 22 178 0.0 11.3 0.00 0.00 0.00 56 1005.0
20260509210747 22 184 6.4 6.4 0.00 0.00 0.00 58 1005.0
20260509210241 22 184 0.0 1.6 0.00 0.00 0.00 57 1005.0
20260509205747 22 184 0.0 1.6 0.00 0.00 0.00 56 1004.9
20260509205241 23 184 0.0 3.2 0.00 0.00 0.00 55 1004.9
20260509204742 23 184 3.2 3.2 0.00 0.00 0.00 54 1004.9
20260509204250 23 184 0.0 4.8 0.00 0.00 0.00 55 1004.8
20260509203750 23 184 4.8 6.4 0.00 0.00 0.00 54 1004.8
20260509203244 23 184 0.0 1.6 0.00 0.00 0.00 55 1004.8
20260509202742 22 184 0.0 4.8 0.00 0.00 0.00 56 1005.1
20260509202241 22 184 0.0 4.8 0.00 0.00 0.00 55 1005.1
20260509201741 22 184 0.0 6.4 0.00 0.00 0.00 53 1005.1
20260509201244 22 184 0.0 1.6 0.00 0.00 0.00 54 1005.3
20260509200741 22 184 1.6 3.2 0.00 0.00 0.00 54 1005.3
20260509200245 22 184 0.0 4.8 0.00 0.00 0.00 53 1005.3
20260509195742 22 184 0.0 3.2 0.00 0.00 0.00 54 1005.6
20260509195241 22 184 0.0 3.2 0.00 0.00 0.00 53 1005.6
20260509194745 22 184 0.0 4.8 0.00 0.00 0.00 54 1005.6
20260509194241 22 186 0.0 1.6 0.00 0.00 0.00 54 1005.8
20260509193747 22 186 0.0 6.4 0.00 0.00 0.00 50 1005.8
20260509193241 22 186 0.0 6.4 0.00 0.00 0.00 51 1005.8
20260509192741 22 186 0.0 3.2 0.00 0.00 0.00 54 1005.8
20260509192244 21 186 0.0 6.4 0.00 0.00 0.00 55 1005.8
20260509191744 21 186 0.0 6.4 0.00 0.00 0.00 55 1005.8
20260509191241 21 186 1.6 8.0 0.00 0.00 0.00 56 1006.2
20260509190742 21 186 0.0 6.4 0.00 0.00 0.00 55 1006.2
20260509190244 21 187 0.0 8.0 0.00 0.00 0.00 55 1006.2
20260509185747 20 192 0.0 9.7 0.00 0.00 0.00 55 1006.2
20260509185244 20 276 0.0 6.4 0.00 0.00 0.00 56 1006.2
20260509184742 20 276 1.6 1.6 0.00 0.00 0.00 58 1006.2
20260509184241 20 276 0.0 1.6 0.00 0.00 0.00 56 1006.3
20260509183742 20 276 0.0 0.0 0.00 0.00 0.00 59 1006.3
20260509183241 20 276 0.0 3.2 0.00 0.00 0.00 58 1006.3
20260509182747 20 276 0.0 0.0 0.00 0.00 0.00 59 1006.5
20260509182244 19 276 0.0 1.6 0.00 0.00 0.00 59 1006.5
20260509181750 19 276 0.0 0.0 0.00 0.00 0.00 60 1006.5
20260509181245 19 276 0.0 0.0 0.00 0.00 0.00 59 1006.9
20260509180744 19 276 0.0 4.8 0.00 0.00 0.00 59 1006.9
20260509180244 19 276 0.0 1.6 0.00 0.00 0.00 57 1006.9
20260509175741 20 276 0.0 3.2 0.00 0.00 0.00 58 1006.9
20260509175241 19 276 0.0 3.2 0.00 0.00 0.00 57 1006.9
20260509174744 19 276 3.2 6.4 0.00 0.00 0.00 57 1006.9
20260509174242 19 276 6.4 6.4 0.00 0.00 0.00 58 1006.9
20260509173744 19 276 4.8 6.4 0.00 0.00 0.00 57 1006.9
20260509173241 19 276 4.8 6.4 0.00 0.00 0.00 57 1006.9
20260509172750 19 276 0.0 8.0 0.00 0.00 0.00 57 1007.0
20260509172247 19 276 0.0 9.7 0.00 0.00 0.00 56 1007.0
20260509171747 19 252 0.0 4.8 0.00 0.00 0.00 57 1007.0
20260509171241 18 252 0.0 4.8 0.00 0.00 0.00 57 1007.2
20260509170744 19 252 0.0 6.4 0.00 0.00 0.00 57 1007.2
20260509170242 19 243 0.0 6.4 0.00 0.00 0.00 55 1007.2
20260509165748 19 243 1.6 6.4 0.00 0.00 0.00 55 1007.0
20260509165244 20 239 0.0 3.2 0.00 0.00 0.00 54 1007.0
20260509164747 20 239 0.0 0.0 0.00 0.00 0.00 54 1007.0
20260509164242 20 239 0.0 4.8 0.00 0.00 0.00 53 1007.2
20260509163747 20 241 0.0 3.2 0.00 0.00 0.00 51 1007.2
20260509163245 20 240 0.0 6.4 0.00 0.00 0.00 51 1007.2
20260509162747 20 240 0.0 8.0 0.00 0.00 0.00 50 1007.2
20260509162247 20 219 0.0 9.7 0.00 0.00 0.00 50 1007.2
20260509161747 20 210 8.0 14.5 0.00 0.00 0.00 50 1007.2
20260509161244 20 196 4.8 8.0 0.00 0.00 0.00 51 1007.3
20260509160744 20 157 6.4 9.7 0.00 0.00 0.00 50 1007.3
20260509160244 20 278 4.8 11.3 0.00 0.00 0.00 52 1007.3
20260509155742 20 162 6.4 16.1 0.00 0.00 0.00 50 1007.3
20260509155244 20 222 8.0 9.7 0.00 0.00 0.00 52 1007.3
20260509154741 20 210 9.7 17.7 0.00 0.00 0.00 51 1007.3
20260509154241 19 238 4.8 11.3 0.00 0.00 0.00 54 1007.4
20260509153741 18 232 3.2 9.7 0.00 0.00 0.00 54 1007.4
20260509153250 18 234 3.2 12.9 0.00 0.00 0.00 56 1007.4
20260509152744 18 207 0.0 6.4 0.00 0.00 0.00 56 1007.7
20260509152247 17 209 0.0 8.0 0.00 0.00 0.00 58 1007.7
20260509151742 17 208 0.0 8.0 0.00 0.00 0.00 58 1007.7
20260509151241 17 207 4.8 8.0 0.00 0.00 0.00 57 1007.9
20260509150741 17 202 0.0 9.7 0.00 0.00 0.00 56 1007.9
20260509150241 17 205 1.6 8.0 0.00 0.00 0.00 57 1007.9
20260509145744 17 204 0.0 4.8 0.00 0.00 0.00 58 1008.2
20260509145241 17 205 0.0 11.3 0.00 0.00 0.00 57 1008.2
20260509144745 16 209 4.8 9.7 0.00 0.00 0.00 57 1008.2
20260509143741 16 218 0.0 9.7 0.00 0.00 0.00 58 1008.3
20260509143251 16 220 3.2 6.4 0.00 0.00 0.00 58 1008.3
20260509142741 16 221 0.0 8.0 0.00 0.00 0.00 58 1007.9
20260509142248 16 222 1.6 8.0 0.00 0.00 0.00 58 1007.9
20260509141741 16 224 0.0 8.0 0.00 0.00 0.00 57 1007.9
20260509141244 16 224 0.0 9.7 0.00 0.00 0.00 57 1007.9
20260509140741 16 225 3.2 9.7 0.00 0.00 0.00 58 1007.9
20260509140241 16 242 1.6 6.4 0.00 0.00 0.00 58 1007.9
20260509135744 16 244 3.2 8.0 0.00 0.00 0.00 58 1008.0
20260509135241 16 263 0.0 12.9 0.00 0.00 0.00 58 1008.0
20260509134744 16 248 0.0 4.8 0.00 0.00 0.00 59 1008.0
20260509134244 16 250 0.0 9.7 0.00 0.00 0.00 58 1008.0
20260509133744 16 161 6.4 11.3 0.00 0.00 0.00 58 1008.0
20260509133244 16 165 1.6 8.0 0.00 0.00 0.00 58 1008.0
20260509132744 16 165 3.2 9.7 0.00 0.00 0.00 58 1007.9
20260509132244 16 169 8.0 14.5 0.00 0.00 0.00 58 1007.9
20260509131741 16 187 0.0 11.3 0.00 0.00 0.00 58 1007.9
20260509131241 16 182 0.0 12.9 0.00 0.00 0.00 58 1007.9